Location: Hurstbourne Priors
(51.2000°N, 1.3667°W)
Time: 02:30:22
(UTC+00:00)

STARLINK-29 - Pass Details

Date: 09 April 2020
Orbit: 387 x 401 km, 53.0° (Epoch: 03 June)

Event Time Altitude Azimuth Distance (km) Brightness Sun altitude
Rises 20:11:57 0° 234° (SW) 2,281 7.1 -12.3°
Reaches altitude 10° 20:14:02 10° 229° (SW) 1,431 6.0 -12.6°
Maximum altitude 20:17:09 50° 153° (SSE) 510 3.1 -13.0°
Enters shadow 20:19:05 20° 84° (E) 979 4.4 -13.3°
